User: anonymous   Login
Location: Unspecified
(0.0000°N, 0.0000°E)
Time: 14:45:04
(UTC+00:00)
Language:

FIREBIRD 4 - Orbit

View from above orbital plane
View from above orbital plane
View from above satellite
View from above satellite

Ground track
Ground track

The orbit data is extracted from the following two-line orbital elements,

1 40378U 15003C   17206.09996456 +.00001620 +00000-0 +72768-4 0  9998
2 40378 099.1230 037.6636 0135187 236.4446 122.3812 15.15502244136753
Epoch (UTC): 25 July 2017 02:23:56
Eccentricity: 0.0135187
inclination: 99.1230°
perigee height: 426 km
apogee height: 613 km
right ascension of ascending node: 37.6636°
argument of perigee: 236.4446°
revolutions per day: 15.15502244
mean anomaly at epoch: 122.3812°
orbit number at epoch: 13675

The dashed part of the orbit path shows where the satellite is in the earth's shadow,  

DLR